GW7189 Weather Reports


time (UTC)temp
F
wind
direction
speed
knots
gust
knots
rain 1hr
in
rain 24hr
in
rain mn
in
humidity
%
barometer
mb
20260502230058 64 204 0.0 0.9 0.00 0.00 0.00 36 1011.3
20260502225552 64 234 0.0 0.9 0.00 0.00 0.00 38 1011.4
20260502225054 64 226 1.7 3.5 0.00 0.00 0.00 37 1011.4
20260502224554 64 253 1.7 3.5 0.00 0.00 0.00 37 1011.5
20260502224054 64 261 1.7 3.5 0.00 0.00 0.00 36 1011.6
20260502223553 64 243 1.7 2.6 0.00 0.00 0.00 37 1011.6
20260502223059 64 222 1.7 3.5 0.00 0.00 0.00 37 1011.7
20260502222553 64 249 1.7 2.6 0.00 0.00 0.00 37 1011.7
20260502222054 64 320 1.7 4.3 0.00 0.00 0.00 39 1011.7
20260502221554 64 246 1.7 3.5 0.00 0.00 0.00 38 1011.8
20260502221055 64 313 3.5 7.0 0.00 0.00 0.00 37 1011.8
20260502220553 64 265 0.9 1.7 0.00 0.00 0.00 37 1011.9
20260502220057 64 250 2.6 4.3 0.00 0.00 0.00 36 1012.1
20260502215553 64 265 1.7 2.6 0.00 0.00 0.00 36 1012.1
20260502215054 64 236 3.5 5.2 0.00 0.00 0.00 36 1012.1
20260502214554 64 261 1.7 3.5 0.00 0.00 0.00 37 1012.2
20260502214055 65 233 3.5 4.3 0.00 0.00 0.00 36 1012.2
20260502213552 65 238 3.5 4.3 0.00 0.00 0.00 35 1012.3
20260502213058 65 242 1.7 2.6 0.00 0.00 0.00 36 1012.4
20260502212553 65 240 3.5 6.1 0.00 0.00 0.00 36 1012.4
20260502212054 64 276 1.7 2.6 0.00 0.00 0.00 37 1012.5
20260502211553 64 241 1.7 6.1 0.00 0.00 0.00 35 1012.6
20260502211055 64 238 0.9 2.6 0.00 0.00 0.00 36 1012.7
20260502210554 64 235 3.5 6.1 0.00 0.00 0.00 35 1012.9
20260502210057 64 265 2.6 5.2 0.00 0.00 0.00 36 1013.0
20260502205553 64 273 0.9 1.7 0.00 0.00 0.00 37 1013.0
20260502205054 63 298 3.5 7.0 0.00 0.00 0.00 36 1013.2
20260502204555 63 318 4.3 12.2 0.00 0.00 0.00 35 1013.2
20260502204054 64 302 2.6 5.2 0.00 0.00 0.00 36 1013.4
20260502203553 63 223 1.7 3.5 0.00 0.00 0.00 36 1013.4
20260502203057 63 253 3.5 6.1 0.00 0.00 0.00 36 1013.5
20260502202553 63 220 1.7 3.5 0.00 0.00 0.00 36 1013.6
20260502202054 63 259 1.7 3.5 0.00 0.00 0.00 37 1013.8
20260502201555 62 224 1.7 1.7 0.00 0.00 0.00 37 1013.9
20260502201054 62 248 1.7 3.5 0.00 0.00 0.00 37 1014.0
20260502200553 62 253 1.7 5.2 0.00 0.00 0.00 36 1014.1
20260502200056 62 236 2.6 5.2 0.00 0.00 0.00 36 1014.2
20260502195553 62 243 1.7 3.5 0.00 0.00 0.00 37 1014.2
20260502195055 61 278 1.7 2.6 0.00 0.00 0.00 37 1014.3
20260502194555 61 223 1.7 2.6 0.00 0.00 0.00 36 1014.5
20260502194054 60 273 2.6 4.3 0.00 0.00 0.00 38 1014.5
20260502193553 60 219 2.6 4.3 0.00 0.00 0.00 36 1014.6
20260502193105 60 225 3.5 5.2 0.00 0.00 0.00 37 1014.8
20260502192559 60 316 4.3 6.1 0.00 0.00 0.00 37 1014.8
20260502192103 60 252 3.5 5.2 0.00 0.00 0.00 38 1014.9
20260502191604 60 226 2.6 5.2 0.00 0.00 0.00 38 1014.9
20260502191103 60 258 3.5 5.2 0.00 0.00 0.00 37 1015.1
20260502190603 60 240 2.6 5.2 0.00 0.00 0.00 36 1015.1
20260502190108 59 237 1.7 3.5 0.00 0.00 0.00 38 1015.3
20260502185602 59 238 3.5 7.0 0.00 0.00 0.00 38 1015.3
20260502185105 58 309 2.6 5.2 0.00 0.00 0.00 37 1015.4
20260502184605 58 293 3.5 5.2 0.00 0.00 0.00 37 1015.5
20260502184105 58 225 2.6 5.2 0.00 0.00 0.00 37 1015.7
20260502183602 58 297 1.7 1.7 0.00 0.00 0.00 39 1015.8
20260502183110 58 268 3.5 4.3 0.00 0.00 0.00 38 1016.0
20260502182602 58 220 1.7 3.5 0.00 0.00 0.00 40 1015.9
20260502182104 57 298 2.6 4.3 0.00 0.00 0.00 39 1015.9
20260502181608 57 272 1.7 2.6 0.00 0.00 0.00 39 1016.1
20260502181105 57 314 4.3 5.2 0.00 0.00 0.00 38 1016.2
20260502180604 57 251 1.7 3.5 0.00 0.00 0.00 39 1016.3
20260502180111 57 245 3.5 4.3 0.00 0.00 0.00 39 1016.3
20260502170115 55 260 1.7 2.6 0.00 0.00 0.00 42 1017.2
20260502164102 55 288 3.5 7.0 0.00 0.00 0.00 42 1017.5
20260502163602 54 228 3.5 5.2 0.00 0.00 0.00 43 1017.6
20260502163109 54 226 2.6 4.3 0.00 0.00 0.00 43 1017.7
20260502162601 53 266 1.7 3.5 0.00 0.00 0.00 44 1017.7
20260502162106 53 269 3.5 5.2 0.00 0.00 0.00 43 1017.8
20260502161608 53 289 1.7 2.6 0.00 0.00 0.00 42 1017.8
20260502161105 53 315 3.5 4.3 0.00 0.00 0.00 41 1017.9
20260502160119 53 235 1.7 2.6 0.00 0.00 0.00 42 1017.9
20260502152102 52 259 1.7 1.7 0.00 0.00 0.00 47 1018.3
20260502151606 51 300 1.7 1.7 0.00 0.00 0.00 49 1018.3
20260502151104 51 267 2.6 4.3 0.00 0.00 0.00 48 1018.4
20260502150602 51 257 2.6 3.5 0.00 0.00 0.00 46 1018.3
20260502150111 51 255 3.5 4.3 0.00 0.00 0.00 46 1018.4
20260502140119 47 306 1.7 2.6 0.00 0.00 0.00 56 1018.6
20260502130601 44 269 2.6 2.6 0.00 0.00 0.00 60 1018.8
20260502130107 44 312 2.6 2.6 0.00 0.00 0.00 59 1018.8
20260502123601 42 298 1.7 1.7 0.00 0.00 0.00 61 1018.7
20260502123106 42 285 1.7 1.7 0.00 0.00 0.00 62 1018.7
20260502122601 42 301 1.7 2.6 0.00 0.00 0.00 63 1018.7
20260502122101 41 303 0.9 1.7 0.00 0.00 0.00 62 1018.6
20260502121603 41 256 1.7 3.5 0.00 0.00 0.00 62 1018.6
20260502121105 41 259 2.6 3.5 0.00 0.00 0.00 62 1018.7
20260502120117 41 266 1.7 2.6 0.00 0.00 0.00 63 1018.7
20260502115601 40 334 2.6 3.5 0.00 0.00 0.00 62 1018.7
20260502115103 40 324 0.9 1.7 0.00 0.00 0.00 63 1018.7
20260502114603 40 318 0.9 1.7 0.00 0.00 0.00 64 1018.6
20260502114104 40 270 0.9 1.7 0.00 0.00 0.00 64 1018.5
20260502113600 40 287 1.7 1.7 0.00 0.00 0.00 65 1018.5
20260502113105 40 269 0.0 0.9 0.00 0.00 0.00 64 1018.4
20260502112600 40 254 0.9 1.7 0.00 0.00 0.00 64 1018.4
20260502112102 41 271 0.9 1.7 0.00 0.00 0.00 66 1018.4
20260502111604 41 263 0.9 0.9 0.00 0.00 0.00 63 1018.4
20260502111102 41 291 0.0 0.9 0.00 0.00 0.00 67 1018.3
20260502110110 41 261 0.0 1.7 0.00 0.00 0.00 62 1018.3
20260502105559 41 248 0.9 1.7 0.00 0.00 0.00 62 1018.3
20260502105100 42 251 0.9 1.7 0.00 0.00 0.00 60 1018.3
20260502104602 42 254 0.9 1.7 0.00 0.00 0.00 62 1018.3
20260502104101 42 237 1.7 2.6 0.00 0.00 0.00 60 1018.3
20260502103559 42 258 0.9 1.7 0.00 0.00 0.00 59 1018.3
20260502103104 42 248 0.9 1.7 0.00 0.00 0.00 58 1018.3
20260502102559 42 235 1.7 2.6 0.00 0.00 0.00 58 1018.3
20260502102059 42 241 0.9 1.7 0.00 0.00 0.00 58 1018.3
20260502101600 43 229 1.7 1.7 0.00 0.00 0.00 57 1018.3
20260502101059 43 237 1.7 2.6 0.00 0.00 0.00 56 1018.3
20260502100559 43 241 1.7 2.6 0.00 0.00 0.00 56 1018.2
20260502100107 43 233 1.7 2.6 0.00 0.00 0.00 57 1018.2
20260502091059 44 254 1.7 2.6 0.00 0.00 0.00 55 1018.2
20260502090559 44 253 0.9 1.7 0.00 0.00 0.00 54 1018.2
20260502071059 42 230 0.9 1.7 0.00 0.00 0.00 58 1018.5
20260502070559 42 228 0.9 1.7 0.00 0.00 0.00 59 1018.5
20260502070059 42 259 0.0 0.9 0.00 0.00 0.00 57 1018.6
20260502065550 42 233 0.0 0.9 0.00 0.00 0.00 59 1018.6
20260502065050 41 236 0.0 0.9 0.00 0.00 0.00 65 1018.6
20260502064551 41 0 0.0 0.0 0.00 0.00 0.00 62 1018.7
20260502064051 41 275 0.0 0.0 0.00 0.00 0.00 61 1018.7
20260502063551 40 231 0.0 0.9 0.00 0.00 0.00 61 1018.7
20260502063051 40 0 0.0 0.0 0.00 0.00 0.00 63 1018.7
20260502062550 40 0 0.0 0.0 0.00 0.00 0.00 64 1018.8
20260502062051 40 0 0.0 0.0 0.00 0.00 0.00 70 1018.7
20260502061551 40 0 0.0 0.0 0.00 0.00 0.00 73 1018.7
20260502061051 40 151 0.0 0.9 0.00 0.00 0.00 65 1018.7
20260502060551 40 0 0.0 0.0 0.00 0.00 0.00 63 1018.7
20260502060051 40 0 0.0 0.0 0.00 0.00 0.00 66 1018.7
20260502055551 40 0 0.0 0.0 0.00 0.00 0.00 64 1018.7
20260502055052 40 0 0.0 0.0 0.00 0.00 0.00 63 1018.7
20260502054551 40 237 0.0 0.9 0.00 0.00 0.00 64 1018.8
20260502054051 40 177 0.0 0.9 0.00 0.00 0.00 66 1018.8
20260502053551 40 204 0.0 0.9 0.00 0.00 0.00 72 1018.8
20260502053051 40 0 0.0 0.0 0.00 0.00 0.00 66 1018.7
20260502052551 40 220 0.0 0.9 0.00 0.00 0.00 66 1018.7
20260502052051 40 0 0.0 0.0 0.00 0.00 0.00 67 1018.7
20260502051551 39 0 0.0 0.0 0.00 0.00 0.00 67 1018.7
20260502051051 39 219 0.0 0.9 0.00 0.00 0.00 70 1018.8
20260502050551 39 0 0.0 0.0 0.00 0.00 0.00 69 1018.7
20260502050051 39 182 0.0 0.9 0.00 0.00 0.00 68 1018.7
20260502045551 39 43 0.0 0.0 0.00 0.00 0.00 69 1018.7
20260502045051 39 0 0.0 0.0 0.00 0.00 0.00 68 1018.6
20260502044551 39 198 0.0 0.0 0.00 0.00 0.00 70 1018.6
20260502044051 39 170 0.0 0.9 0.00 0.00 0.00 71 1018.6
20260502043552 39 0 0.0 0.0 0.00 0.00 0.00 70 1018.6
20260502043051 39 191 0.0 0.9 0.00 0.00 0.00 72 1018.6
20260502042551 39 0 0.0 0.0 0.00 0.00 0.00 71 1018.6
20260502042051 40 142 0.0 0.0 0.00 0.00 0.00 70 1018.6
20260502041551 40 171 0.0 0.9 0.00 0.00 0.00 69 1018.6
20260502041052 40 178 0.9 1.7 0.00 0.00 0.00 69 1018.6
20260502040551 40 195 0.0 0.9 0.00 0.00 0.00 70 1018.6
20260502040051 40 115 0.0 0.0 0.00 0.00 0.00 71 1018.6
20260502035551 40 0 0.0 0.0 0.00 0.00 0.00 70 1018.6
20260502035051 40 0 0.0 0.0 0.00 0.00 0.00 70 1018.7
20260502034551 40 0 0.0 0.0 0.00 0.00 0.00 69 1018.7
20260502034051 40 157 0.0 0.9 0.00 0.00 0.00 69 1018.7
20260502033551 40 0 0.0 0.0 0.00 0.00 0.00 70 1018.8
20260502033051 40 186 0.0 0.9 0.00 0.00 0.00 68 1018.8
20260502032551 40 0 0.0 0.0 0.00 0.00 0.00 67 1018.8
20260502032051 41 0 0.0 0.0 0.00 0.00 0.00 66 1018.8
20260502031551 41 0 0.0 0.0 0.00 0.00 0.00 67 1018.8
20260502031051 41 0 0.0 0.0 0.00 0.00 0.00 65 1018.8
20260502030551 42 179 0.0 0.9 0.00 0.00 0.00 64 1018.8
20260502030051 42 0 0.0 0.0 0.00 0.00 0.00 68 1018.8
20260502025552 42 196 0.0 0.9 0.00 0.00 0.00 64 1018.7
20260502025051 43 0 0.0 0.0 0.00 0.00 0.00 62 1018.7
20260502024552 43 0 0.0 0.0 0.00 0.00 0.00 61 1018.7
20260502024052 43 267 0.0 0.9 0.00 0.00 0.00 59 1018.7
20260502023551 44 186 0.0 0.9 0.00 0.00 0.00 57 1018.7
20260502023052 44 193 0.0 0.9 0.00 0.00 0.00 57 1018.7
20260502022552 44 171 0.0 0.9 0.00 0.00 0.00 57 1018.7
20260502022052 44 262 0.9 1.7 0.00 0.00 0.00 59 1018.7
20260502021551 45 196 0.0 0.9 0.00 0.00 0.00 59 1018.6
20260502021051 45 0 0.0 0.0 0.00 0.00 0.00 55 1018.6
20260502020551 45 0 0.0 0.0 0.00 0.00 0.00 55 1018.6
20260502020051 46 0 0.0 0.0 0.00 0.00 0.00 50 1018.5
20260502015551 46 0 0.0 0.0 0.00 0.00 0.00 49 1018.5
20260502015051 47 0 0.0 0.0 0.00 0.00 0.00 49 1018.3
20260502014551 47 0 0.0 0.0 0.00 0.00 0.00 45 1018.3
20260502014052 48 265 0.0 0.0 0.00 0.00 0.00 45 1018.3
20260502013552 48 0 0.0 0.0 0.00 0.00 0.00 46 1018.2
20260502013051 49 0 0.0 0.0 0.00 0.00 0.00 45 1018.2
20260502012551 49 244 0.0 0.9 0.00 0.00 0.00 46 1018.2
20260502012051 50 0 0.0 0.0 0.00 0.00 0.00 42 1018.1
20260502011551 50 0 0.0 0.0 0.00 0.00 0.00 39 1018.1
20260502011051 51 25 0.0 0.9 0.00 0.00 0.00 38 1018.1
20260502010551 51 0 0.0 0.0 0.00 0.00 0.00 38 1018.1
20260502010051 51 315 0.0 0.0 0.00 0.00 0.00 39 1018.1
20260502005551 51 326 0.0 0.9 0.00 0.00 0.00 41 1018.1
20260502005051 52 359 0.0 0.9 0.00 0.00 0.00 37 1018.1
20260502004552 52 317 1.7 2.6 0.00 0.00 0.00 37 1018.1
20260502004051 52 330 0.9 1.7 0.00 0.00 0.00 37 1018.1
20260502003551 51 322 1.7 3.5 0.00 0.00 0.00 36 1018.1
20260502003052 51 318 1.7 3.5 0.00 0.00 0.00 37 1018.1
20260502002552 52 212 0.0 0.9 0.00 0.00 0.00 36 1018.0
20260502002051 52 56 0.9 2.6 0.00 0.00 0.00 36 1018.0
20260502001551 52 53 1.7 3.5 0.00 0.00 0.00 35 1018.0
20260502001051 52 319 0.9 1.7 0.00 0.00 0.00 38 1018.0
20260502000551 52 33 1.7 1.7 0.00 0.00 0.00 35 1018.0
20260502000051 52 316 2.6 3.5 0.00 0.00 0.00 36 1017.9
20260501235551 52 279 2.6 3.5 0.00 0.00 0.00 35 1017.9
20260501235051 52 287 2.6 5.2 0.00 0.00 0.00 38 1018.0
20260501234551 52 285 1.7 2.6 0.00 0.00 0.00 36 1017.9
20260501234051 52 340 1.7 2.6 0.00 0.00 0.00 39 1017.9
20260501233551 52 319 2.6 3.5 0.00 0.00 0.00 37 1017.9
20260501233051 52 313 2.6 5.2 0.00 0.00 0.00 38 1018.0
20260501232551 53 233 0.9 1.7 0.00 0.00 0.00 35 1017.9
20260501232051 53 253 0.9 2.6 0.00 0.00 0.00 36 1017.9
20260501231552 53 71 1.7 3.5 0.00 0.00 0.00 33 1017.9
20260501231052 53 355 0.9 2.6 0.00 0.00 0.00 37 1017.9
20260501230551 53 329 1.7 2.6 0.00 0.00 0.00 36 1018.0